This demonstration page uses our WeatherBlox Daily Observations layout. Learn more.

Left ArrowRight Arrow

39.01783, -85.05884

Hourly Observations for May 9, 2022

Temp ( °F °C ) Dew Point ( °F °C ) Humidity (%) Winds ( mph kmh ) Pressure ( in mb ) Visibility ( mi km ) Precip ( " mm )
12:52 am 00:52 Partly Cloudy 58 14.4 48 8.9 70 70 ESE 7 11 29.99 1016 10 16 0.00 0.00
1:52 am 01:52 Mostly Cloudy 57 13.9 48 8.9 72 72 ESE 8 13 30.01 1016 10 16 0.00 0.00
2:52 am 02:52 Mostly Cloudy 56 13.3 48 8.9 75 75 ESE 7 11 30.00 1016 10 16 0.00 0.00
3:52 am 03:52 Mostly Cloudy 55 12.8 48 8.9 77 77 ESE 7 11 30.01 1016 10 16 0.00 0.00
4:52 am 04:52 Mostly Cloudy 54 12.2 48 8.9 80 80 ESE 8 13 30.04 1017 10 16 0.00 0.00
5:52 am 05:52 Mostly Clear 54 12.2 48 8.9 80 80 ESE 10 17 30.04 1017 10 16 0.00 0.00
6:52 am 06:52 Partly Cloudy 53 11.7 49 9.4 86 86 ESE 10 17 30.06 1018 10 16 0.00 0.00
7:52 am 07:52 Partly Cloudy 56 13.3 49 9.4 77 77 SE 14 22 30.08 1019 10 16 0.00 0.00
8:52 am 08:52 Mostly Sunny 59 15 50 10 72 72 SE 13 20 30.09 1019 10 16 0.00 0.00
9:52 am 09:52 Mostly Sunny 63 17.2 50 10 63 63 SE 12 19 30.09 1019 10 16 0.00 0.00
10:52 am 10:52 Mostly Sunny 67 19.4 52 11.1 59 59 SSE 13 20 30.10 1019 10 16 0.00 0.00
11:52 am 11:52 Mostly Sunny 70 21.1 54 12.2 57 57 SSE 16 26 30.10 1019 10 16 0.00 0.00
12:52 pm 12:52 Mostly Sunny 72 22.2 54 12.2 53 53 SE 13 20 30.10 1019 10 16 0.00 0.00
1:52 pm 13:52 Mostly Sunny 74 23.3 55 12.8 52 52 SSE 10 17 30.09 1019 10 16 0.00 0.00
2:52 pm 14:52 Sunny 75 23.9 55 12.8 50 50 SE 14 22 30.07 1018 10 16 0.00 0.00
3:52 pm 15:52 Mostly Sunny 76 24.4 55 12.8 48 48 S 12 19 30.05 1018 10 16 0.00 0.00
4:52 pm 16:52 Mostly Sunny 76 24.4 53 11.7 45 45 SE 14 22 30.03 1017 10 16 0.00 0.00
5:52 pm 17:52 Mostly Sunny 76 24.4 52 11.1 43 43 SSE 17 28 30.03 1017 10 16 0.00 0.00
6:52 pm 18:52 Sunny 76 24.4 53 11.7 45 45 SSE 14 22 30.04 1017 10 16 0.00 0.00
7:52 pm 19:52 Sunny 72 22.2 55 12.8 55 55 S 13 20 30.04 1017 10 16 0.00 0.00
8:52 pm 20:52 Clear 69 20.6 54 12.2 59 59 SSE 10 17 30.05 1018 10 16 0.00 0.00
9:52 pm 21:52 Clear 68 20 54 12.2 61 61 SE 8 13 30.06 1018 10 16 0.00 0.00
10:52 pm 22:52 Clear 67 19.4 52 11.1 59 59 SE 10 17 30.06 1018 10 16 0.00 0.00
11:52 pm 23:52 Clear 66 18.9 52 11.1 61 61 SE 12 19 30.06 1018 10 16 0.00 0.00

Powered by AerisWeather